Location: Bernadets
(43.3537°N, 0.3167°E)
Time: 23:18:39
(UTC+00:00)

Cosmos 2219 Rocket - Pass Details

Date: 24 October 2021
Orbit: 827 x 848 km, 71.0° (Epoch: 27 November)

Event Time Altitude Azimuth Distance (km) Brightness Sun altitude
Rises 19:52:07 0° 211° (SSW) 3,352 5.5 -31.6°
Reaches altitude 10° 19:54:33 10° 213° (SSW) 2,424 4.8 -32.0°
Enters shadow 19:57:20 30° 221° (SW) 1,436 3.5 -32.5°
